Flag for Canada Weather past 2 weeks in Quesnel, British Columbia, Canada

Now
57 °F

Passing clouds.


Feels Like: 57 °F
Forecast: 50 / 75 °F
Wind: No wind

Location: Quesnel Airport

Current Time: May 28, 2015 at 1:44:52 AM

Latest Report: May 28, 2015 at 1:00 AM


Visibility: 9 mi

Pressure: 30.00 "Hg

Humidity: 82%

Dew point: 52 °F

Location of QuesnelLocation

Historic Weather in Quesnel — Graph

°F

Quesnel temperature yesterday

Maximum temperature yesterday: 77 °F (at 7:00 PM)
Minimum temperature yesterday: 48 °F (at 3:00 AM)
Average temperature yesterday: 62 °F

Past Weeks' High & Low Weather Summary

 TemperatureHumidityPressure
High81 °F (May 21, 4:00 PM)100% (May 15, 5:00 AM)30.21 "Hg (May 15, 5:00 AM)
Low37 °F (May 13, 6:00 AM)16% (May 21, 4:00 PM)29.67 "Hg (May 13, 7:00 PM)
Average58 °F66%29.98 "Hg
* Reported May 13 1:00 AM — May 28 1:00 AM, Quesnel, Weather by CustomWeather, © 2015

Note: Actual official high and low records may vary slightly from our data, if they occured in-between our weather recording intervals... More about our weather records

Advertising

Quesnel weather history for previous 24 hours

 ConditionsComfort  
Time TempWeatherWind HumidityBarometerVisibility
1:00 AM
Thu, May 28
57 °FPassing clouds.No wind82%30.00 "Hg9 mi
12:00 AM57 °FPassing clouds.2 mph82%29.98 "Hg9 mi
11:00 PM
Wed, May 27
64 °FClear.6 mph64%29.96 "Hg9 mi
10:00 PM68 °FPassing clouds.5 mph53%29.96 "Hg9 mi
9:00 PM72 °FPartly sunny.9 mph47%29.94 "Hg9 mi
8:00 PM75 °FSunny.7 mph44%29.91 "Hg9 mi
7:00 PM77 °FSunny.5 mph42%29.91 "Hg9 mi
6:00 PM75 °FSunny.8 mph39%29.92 "Hg9 mi
5:00 PM72 °FSunny.2 mph53%29.93 "Hg9 mi
4:00 PM68 °FPartly sunny.5 mph69%29.96 "Hg9 mi
3:00 PM73 °FSunny.3 mph47%29.95 "Hg9 mi
2:00 PM72 °FSunny.3 mph53%29.96 "Hg9 mi
1:00 PM73 °FSunny.2 mph44%29.96 "Hg9 mi
12:00 PM68 °FPassing clouds.2 mph56%30.00 "Hg9 mi
11:00 AM63 °FScattered clouds.2 mph73%30.01 "Hg9 mi
10:00 AM59 °FLight rain. Passing clouds.No wind72%30.02 "Hg9 mi
9:46 AM59 °FLight rain. Passing clouds.2 mph72%30.02 "Hg9 mi
9:00 AM55 °FScattered clouds.No wind82%30.03 "Hg9 mi
8:00 AM54 °FPartly sunny.3 mph88%30.02 "Hg9 mi
7:00 AM52 °FOvercast.2 mph94%30.01 "Hg9 mi
6:00 AM50 °FPartly sunny.2 mph94%30.01 "Hg9 mi
5:00 AM50 °FOvercast.6 mph94%30.00 "Hg9 mi
4:00 AM50 °FOvercast.No wind88%29.99 "Hg7 mi
3:00 AM48 °FClear.No wind94%29.98 "Hg9 mi
2:00 AM52 °FClear.No wind88%29.97 "Hg9 mi
1:00 AM52 °FClear.No wind88%29.97 "Hg9 mi
Weather by CustomWeather, © 2015

See weather overviewHow to use our weather pages